Torna al catalogo

ESSA 3

TOS-A

AttivoMeteoLEO
NORAD 2435·PAYLOAD·🇺🇸 United States

Lanciato Oct 2, 1966 da Vandenberg Space Force Base

Loading…

Prossimi Passaggi (prossime 24 ore)

TLE

AggiornatoSource: Space-Track

Epoca: Sep 14, 2026, 11:42 UTC

1 02435U 66087A   26257.48807083 -.00000033  00000-0  49254-4 0  9996
2 02435 101.0625 154.8695 0063549 219.5844 314.5637 12.56881018750224

Traccia ESSA 3 in tempo reale con AllMySat

Download on the App Store